This is the latest recevied weather packets stored in our database for station/object AI5ON. If no packets are shown the sender has not sent any weather packets the latest 10 day(s).
| Time | Temp. | Humidity | Pressure | Rain* | Wind** | Luminosity | Snow |
|---|---|---|---|---|---|---|---|
| 1788032900 | 35° C | 44% | 1015.8 hPa | 0 mm | - | 889 W/m² | - |
| 1788032600 | 35.56° C | 46% | 1015.8 hPa | 0 mm | - | 234 W/m² | - |
| 1788032295 | 35° C | 47% | 1016.1 hPa | 0 mm | - | 879 W/m² | - |
| 1788031990 | 35° C | 48% | 1016.2 hPa | 0 mm | - | 918 W/m² | - |
| 1788031685 | 35° C | 46% | 1016.2 hPa | 0 mm | - | 912 W/m² | - |
| 1788031385 | 35.56° C | 44% | 1016.2 hPa | 0 mm | - | 939 W/m² | - |
| 1788031080 | 35° C | 46% | 1016.3 hPa | 0 mm | - | 939 W/m² | - |
| 1788030779 | 34.44° C | 46% | 1016.3 hPa | 0 mm | - | 902 W/m² | - |
| 1788030479 | 35° C | 50% | 1016.5 hPa | 0 mm | - | 940 W/m² | - |
| 1788030174 | 35° C | 48% | 1016.5 hPa | 0 mm | - | 926 W/m² | - |
| 1788029874 | 35° C | 49% | 1016.3 hPa | 0 mm | - | 928 W/m² | - |
| 1788029569 | 35° C | 51% | 1016.5 hPa | 0 mm | - | 924 W/m² | - |
| 1788029264 | 35° C | 52% | 1016.7 hPa | 0 mm | - | 934 W/m² | - |
| 1788028964 | 35° C | 51% | 1016.6 hPa | 0 mm | - | 943 W/m² | - |
| 1788028663 | 35° C | 53% | 1016.6 hPa | 0 mm | - | 934 W/m² | - |
| 1788028358 | 35° C | 52% | 1016.8 hPa | 0 mm | - | 253 W/m² | - |
| 1788028054 | 35° C | 51% | 1016.9 hPa | 0 mm | - | 938 W/m² | - |
| 1788027749 | 35.56° C | 53% | 1016.9 hPa | 0 mm | - | 940 W/m² | - |
| 1788027449 | 35° C | 53% | 1016.8 hPa | 0 mm | - | 945 W/m² | - |
| 1788027144 | 35.56° C | 54% | 1017.2 hPa | 0 mm | - | 949 W/m² | - |
| 1788026843 | 36.11° C | 50% | 1017 hPa | 0 mm | - | 954 W/m² | - |
| 1788026538 | 35.56° C | 51% | 1017.1 hPa | 0 mm | - | 930 W/m² | - |
| 1788026238 | 36.11° C | 51% | 1017.3 hPa | 0 mm | - | 909 W/m² | - |
| 1788025938 | 35.56° C | 51% | 1017.2 hPa | 0 mm | - | 931 W/m² | - |
| 1788025637 | 34.44° C | 51% | 1017.3 hPa | 0 mm | - | 903 W/m² | - |
* Rain latest hour (hover to see other rain measurements)
** Current wind speed in m/s (hover to see current wind gust speed)